User: anonymous   Login
Location: Raven Hill Discovery Center
(45.1336°N, 85.0553°W)
Time: 02:41:16
(UTC-04:00)
Language:

Cosmos 1470 - Orbit

View from above orbital plane
View from above orbital plane
View from above satellite
View from above satellite

Ground track
Ground track

The orbit data is extracted from the following two-line orbital elements,

1 14147U 83061A   18113.93916418  .00000514  00000-0  28975-4 0  9995
2 14147  82.4839  93.7731 0014410 272.4710  87.4870 15.10927050651732
Epoch (UTC): 23 April 2018 22:32:23
Eccentricity: 0.0014410
inclination: 82.4839°
perigee height: 523 km
apogee height: 543 km
right ascension of ascending node: 93.7731°
argument of perigee: 272.4710°
revolutions per day: 15.10927050
mean anomaly at epoch: 87.4870°
orbit number at epoch: 65173

The dashed part of the orbit path shows where the satellite is in the earth's shadow,  

DLR